owner,sensor,date,latitude,longitude,vertical_datum,direction_of_sea_water_velocity,sea_water_speed,upward_sea_water_velocity,qcFlag 
TABS,ioos:station:wmo:42051:1,2000-12-01T00:00:00Z,29.6350,-93.6417,2.0,65.28175827,28.86474147,-99999.0,'11111222,11111222,99999999' 
TABS,ioos:station:wmo:42051:1,2000-12-01T00:30:00Z,29.6350,-93.6417,2.0,76.26446807,35.12449288,-99999.0,'11111222,11111222,99999999' 
TABS,ioos:station:wmo:42051:1,2000-12-01T01:00:00Z,29.6350,-93.6417,2.0,69.29493741,33.29012616,-99999.0,'11111222,11111222,99999999' 
TABS,ioos:station:wmo:42051:1,2000-12-01T01:30:00Z,29.6350,-93.6417,2.0,71.4701442,26.71495836,-99999.0,'11111222,11111222,99999999' 
TABS,ioos:station:wmo:42051:1,2000-12-01T02:00:00Z,29.6350,-93.6417,2.0,74.55178416,26.27943873,-99999.0,'11111222,11111222,99999999' 
TABS,ioos:station:wmo:42051:1,2000-12-01T02:30:00Z,29.6350,-93.6417,2.0,63.30211319,30.8488768,-99999.0,'11111222,11111222,99999999' 
TABS,ioos:station:wmo:42051:1,2000-12-01T03:00:00Z,29.6350,-93.6417,2.0,61.88336387,29.72824415,-99999.0,'11111222,11111222,99999999' 
TABS,ioos:station:wmo:42051:1,2000-12-01T03:30:00Z,29.6350,-93.6417,2.0,59.59494775,28.84743316,-99999.0,'11111222,11111222,99999999' 
TABS,ioos:station:wmo:42051:1,2000-12-01T04:00:00Z,29.6350,-93.6417,2.0,59.5111308,27.31723266,-99999.0,'11111222,11111222,99999999' 
TABS,ioos:station:wmo:42051:1,2000-12-01T04:30:00Z,29.6350,-93.6417,2.0,63.57972271,24.78912867,-99999.0,'11111222,11111222,99999999' 
TABS,ioos:station:wmo:42051:1,2000-12-01T05:00:00Z,29.6350,-93.6417,2.0,64.61610557,28.85587982,-99999.0,'11111222,11111222,99999999' 
TABS,ioos:station:wmo:42051:1,2000-12-01T05:30:00Z,29.6350,-93.6417,2.0,59.14676517,28.46881803,-99999.0,'11111222,11111222,99999999' 
TABS,ioos:station:wmo:42051:1,2000-12-01T06:00:00Z,29.6350,-93.6417,2.0,59.80610934,23.1046597,-99999.0,'11111222,11111222,99999999' 
TABS,ioos:station:wmo:42051:1,2000-12-01T06:30:00Z,29.6350,-93.6417,2.0,64.85439812,24.19273445,-99999.0,'11111222,11111222,99999999' 
TABS,ioos:station:wmo:42051:1,2000-12-01T07:00:00Z,29.6350,-93.6417,2.0,66.97184769,19.42818571,-99999.0,'11111222,11111222,99999999' 
TABS,ioos:station:wmo:42051:1,2000-12-01T07:30:00Z,29.6350,-93.6417,2.0,61.08694633,22.81363189,-99999.0,'11111222,11111222,99999999' 
TABS,ioos:station:wmo:42051:1,2000-12-01T08:00:00Z,29.6350,-93.6417,2.0,62.77328326,28.65488615,-99999.0,'11111222,11111222,99999999' 
TABS,ioos:station:wmo:42051:1,2000-12-01T08:30:00Z,29.6350,-93.6417,2.0,66.41589993,28.29323771,-99999.0,'11111222,11111222,99999999' 
TABS,ioos:station:wmo:42051:1,2000-12-01T09:00:00Z,29.6350,-93.6417,2.0,59.25186886,28.26316684,-99999.0,'11111222,11111222,99999999' 
TABS,ioos:station:wmo:42051:1,2000-12-01T09:30:00Z,29.6350,-93.6417,2.0,50.91628528,27.64663632,-99999.0,'11111222,11111222,99999999' 
TABS,ioos:station:wmo:42051:1,2000-12-01T10:00:00Z,29.6350,-93.6417,2.0,48.57292381,28.82112073,-99999.0,'11111222,11111222,99999999' 
TABS,ioos:station:wmo:42051:1,2000-12-01T10:30:00Z,29.6350,-93.6417,2.0,45.40339969,30.1376376,-99999.0,'11111222,11111222,99999999' 
TABS,ioos:station:wmo:42051:1,2000-12-01T11:00:00Z,29.6350,-93.6417,2.0,44.22588687,31.3984076,-99999.0,'11111222,11111222,99999999' 
TABS,ioos:station:wmo:42051:1,2000-12-01T11:30:00Z,29.6350,-93.6417,2.0,42.56027645,29.73250914,-99999.0,'11111222,11111222,99999999' 
TABS,ioos:station:wmo:42051:1,2000-12-01T12:00:00Z,29.6350,-93.6417,2.0,45.00010523,31.39554108,-99999.0,'11111222,11111222,99999999' 
TABS,ioos:station:wmo:42051:1,2000-12-01T12:30:00Z,29.6350,-93.6417,2.0,50.34118938,38.51361967,-99999.0,'11111222,11111222,99999999' 
TABS,ioos:station:wmo:42051:1,2000-12-01T13:00:00Z,29.6350,-93.6417,2.0,46.21549759,34.6701745,-99999.0,'11111222,11111222,99999999' 
TABS,ioos:station:wmo:42051:1,2000-12-01T13:30:00Z,29.6350,-93.6417,2.0,49.25371815,31.26954109,-99999.0,'11111222,11111222,99999999' 
TABS,ioos:station:wmo:42051:1,2000-12-01T14:00:00Z,29.6350,-93.6417,2.0,66.46132208,23.8876872,-99999.0,'11111222,11111222,99999999' 
TABS,ioos:station:wmo:42051:1,2000-12-01T14:30:00Z,29.6350,-93.6417,2.0,63.83427727,19.25301275,-99999.0,'11111222,11111222,99999999' 
TABS,ioos:station:wmo:42051:1,2000-12-01T15:00:00Z,29.6350,-93.6417,2.0,59.7748381,19.82516835,-99999.0,'11111222,11111222,99999999' 
TABS,ioos:station:wmo:42051:1,2000-12-01T15:30:00Z,29.6350,-93.6417,2.0,62.88410825,20.93056378,-99999.0,'11111222,11111222,99999999' 
TABS,ioos:station:wmo:42051:1,2000-12-01T16:00:00Z,29.6350,-93.6417,2.0,65.52742588,16.53556773,-99999.0,'11111222,11111222,99999999' 
TABS,ioos:station:wmo:42051:1,2000-12-01T16:30:00Z,29.6350,-93.6417,2.0,56.89256002,16.36727528,-99999.0,'11111222,11111222,99999999' 
TABS,ioos:station:wmo:42051:1,2000-12-01T17:00:00Z,29.6350,-93.6417,2.0,62.47800961,15.79778782,-99999.0,'11111222,11111222,99999999' 
TABS,ioos:station:wmo:42051:1,2000-12-01T17:30:00Z,29.6350,-93.6417,2.0,84.2630807,23.8092524,-99999.0,'11111222,11111222,99999999' 
TABS,ioos:station:wmo:42051:1,2000-12-01T18:00:00Z,29.6350,-93.6417,2.0,82.5890456,26.59213794,-99999.0,'11111222,11111222,99999999' 
TABS,ioos:station:wmo:42051:1,2000-12-01T18:30:00Z,29.6350,-93.6417,2.0,77.44269436,23.96322599,-99999.0,'11111222,11111222,99999999' 
TABS,ioos:station:wmo:42051:1,2000-12-01T19:00:00Z,29.6350,-93.6417,2.0,80.24796963,23.73294124,-99999.0,'11111222,11111222,99999999' 
TABS,ioos:station:wmo:42051:1,2000-12-01T19:30:00Z,29.6350,-93.6417,2.0,80.72213154,24.0040205,-99999.0,'11111222,11111222,99999999' 
TABS,ioos:station:wmo:42051:1,2000-12-01T20:00:00Z,29.6350,-93.6417,2.0,90.0,22.95,-99999.0,'11111222,11111222,99999999' 
TABS,ioos:station:wmo:42051:1,2000-12-01T20:30:00Z,29.6350,-93.6417,2.0,88.70393953,26.52678646,-99999.0,'11111222,11111222,99999999' 
TABS,ioos:station:wmo:42051:1,2000-12-01T21:00:00Z,29.6350,-93.6417,2.0,90.0,27.27,-99999.0,'11111222,11111222,99999999' 
TABS,ioos:station:wmo:42051:1,2000-12-01T21:30:00Z,29.6350,-93.6417,2.0,92.20830414,26.99004446,-99999.0,'11111222,11111222,99999999' 
TABS,ioos:station:wmo:42051:1,2000-12-01T22:00:00Z,29.6350,-93.6417,2.0,93.42279549,27.46900071,-99999.0,'11111222,11111222,99999999' 
TABS,ioos:station:wmo:42051:1,2000-12-01T22:30:00Z,29.6350,-93.6417,2.0,90.0,23.99,-99999.0,'11111222,11111222,99999999' 
TABS,ioos:station:wmo:42051:1,2000-12-01T23:00:00Z,29.6350,-93.6417,2.0,88.43064887,21.90821764,-99999.0,'11111222,11111222,99999999' 
TABS,ioos:station:wmo:42051:1,2000-12-01T23:30:00Z,29.6350,-93.6417,2.0,86.73499523,20.89391538,-99999.0,'11111222,11111222,99999999' 
TABS,ioos:station:wmo:42051:1,2000-12-02T00:00:00Z,29.6350,-93.6417,2.0,74.05464139,21.69472747,-99999.0,'11111222,11111222,99999999' 
TABS,ioos:station:wmo:42051:1,2000-12-02T00:30:00Z,29.6350,-93.6417,2.0,78.45275694,20.8316346,-99999.0,'11111222,11111222,99999999' 
TABS,ioos:station:wmo:42051:1,2000-12-02T01:00:00Z,29.6350,-93.6417,2.0,67.20473871,25.37165742,-99999.0,'11111222,11111222,99999999' 
TABS,ioos:station:wmo:42051:1,2000-12-02T01:30:00Z,29.6350,-93.6417,2.0,72.44951942,27.65741311,-99999.0,'11111222,11111222,99999999' 
TABS,ioos:station:wmo:42051:1,2000-12-02T02:00:00Z,29.6350,-93.6417,2.0,80.93288184,28.36443195,-99999.0,'11111222,11111222,99999999' 
TABS,ioos:station:wmo:42051:1,2000-12-02T02:30:00Z,29.6350,-93.6417,2.0,68.51163562,24.8148383,-99999.0,'11111222,11111222,99999999' 
TABS,ioos:station:wmo:42051:1,2000-12-02T03:00:00Z,29.6350,-93.6417,2.0,69.22060087,23.11346145,-99999.0,'11111222,11111222,99999999' 
TABS,ioos:station:wmo:42051:1,2000-12-02T03:30:00Z,29.6350,-93.6417,2.0,65.21146808,23.80320357,-99999.0,'11111222,11111222,99999999' 
TABS,ioos:station:wmo:42051:1,2000-12-02T04:00:00Z,29.6350,-93.6417,2.0,67.99913902,25.0653087,-99999.0,'11111222,11111222,99999999' 
TABS,ioos:station:wmo:42051:1,2000-12-02T04:30:00Z,29.6350,-93.6417,2.0,74.41117687,22.73636075,-99999.0,'11111222,11111222,99999999' 
TABS,ioos:station:wmo:42051:1,2000-12-02T05:00:00Z,29.6350,-93.6417,2.0,68.50735477,20.33393469,-99999.0,'11111222,11111222,99999999' 
TABS,ioos:station:wmo:42051:1,2000-12-02T05:30:00Z,29.6350,-93.6417,2.0,80.89700788,15.99140394,-99999.0,'11111222,11111222,99999999' 
TABS,ioos:station:wmo:42051:1,2000-12-02T06:00:00Z,29.6350,-93.6417,2.0,72.30435191,14.70581518,-99999.0,'11111222,11111222,99999999' 
TABS,ioos:station:wmo:42051:1,2000-12-02T06:30:00Z,29.6350,-93.6417,2.0,74.97527393,12.65254125,-99999.0,'11111222,11111222,99999999' 
TABS,ioos:station:wmo:42051:1,2000-12-02T07:00:00Z,29.6350,-93.6417,2.0,70.79087593,14.04179476,-99999.0,'11111222,11111222,99999999' 
TABS,ioos:station:wmo:42051:1,2000-12-02T07:30:00Z,29.6350,-93.6417,2.0,81.24274289,11.75706171,-99999.0,'11111222,11111222,99999999' 
TABS,ioos:station:wmo:42051:1,2000-12-02T08:00:00Z,29.6350,-93.6417,2.0,80.26177149,10.58248553,-99999.0,'11111222,11111222,99999999' 
TABS,ioos:station:wmo:42051:1,2000-12-02T08:30:00Z,29.6350,-93.6417,2.0,78.16161859,12.33230716,-99999.0,'11111222,11111222,99999999' 
TABS,ioos:station:wmo:42051:1,2000-12-02T09:00:00Z,29.6350,-93.6417,2.0,78.57573156,12.77306933,-99999.0,'11111222,11111222,99999999' 
TABS,ioos:station:wmo:42051:1,2000-12-02T09:30:00Z,29.6350,-93.6417,2.0,97.35892043,13.97511002,-99999.0,'11111222,11111222,99999999' 
TABS,ioos:station:wmo:42051:1,2000-12-02T10:00:00Z,29.6350,-93.6417,2.0,92.16198007,11.9284911,-99999.0,'11111222,11111222,99999999' 
TABS,ioos:station:wmo:42051:1,2000-12-02T10:30:00Z,29.6350,-93.6417,2.0,97.10808834,8.404593982,-99999.0,'11133222,11111222,99999999' 
TABS,ioos:station:wmo:42051:1,2000-12-02T11:00:00Z,29.6350,-93.6417,2.0,95.78827928,7.337410988,-99999.0,'11133222,11111222,99999999' 
TABS,ioos:station:wmo:42051:1,2000-12-02T11:30:00Z,29.6350,-93.6417,2.0,99.62687473,8.012839696,-99999.0,'11133222,11111222,99999999' 
TABS,ioos:station:wmo:42051:1,2000-12-02T12:00:00Z,29.6350,-93.6417,2.0,95.22591519,1.646845469,-99999.0,'11133222,11111222,99999999' 
TABS,ioos:station:wmo:42051:1,2000-12-02T12:30:00Z,29.6350,-93.6417,2.0,113.6040598,2.597306297,-99999.0,'11133222,11111222,99999999' 
TABS,ioos:station:wmo:42051:1,2000-12-02T13:00:00Z,29.6350,-93.6417,2.0,90.0,7.75,-99999.0,'11133222,11111222,99999999' 
TABS,ioos:station:wmo:42051:1,2000-12-02T13:30:00Z,29.6350,-93.6417,2.0,87.93989379,8.345393939,-99999.0,'11133222,11111222,99999999' 
TABS,ioos:station:wmo:42051:1,2000-12-02T14:00:00Z,29.6350,-93.6417,2.0,79.94333939,6.814704689,-99999.0,'11133222,11111222,99999999' 
TABS,ioos:station:wmo:42051:1,2000-12-02T14:30:00Z,29.6350,-93.6417,2.0,83.9654449,7.039005612,-99999.0,'11133222,11111222,99999999' 
TABS,ioos:station:wmo:42051:1,2000-12-02T15:00:00Z,29.6350,-93.6417,2.0,78.90772642,7.744682046,-99999.0,'11133222,11111222,99999999' 
TABS,ioos:station:wmo:42051:1,2000-12-02T15:30:00Z,29.6350,-93.6417,2.0,76.29522981,6.289053983,-99999.0,'11133222,11111222,99999999' 
TABS,ioos:station:wmo:42051:1,2000-12-02T16:00:00Z,29.6350,-93.6417,2.0,92.45402594,7.006425622,-99999.0,'11133222,11111222,99999999' 
TABS,ioos:station:wmo:42051:1,2000-12-02T16:30:00Z,29.6350,-93.6417,2.0,87.38159666,6.566856173,-99999.0,'11133222,11111222,99999999' 
TABS,ioos:station:wmo:42051:1,2000-12-02T17:00:00Z,29.6350,-93.6417,2.0,79.80349965,7.569550845,-99999.0,'11133222,11111222,99999999' 
TABS,ioos:station:wmo:42051:1,2000-12-02T17:30:00Z,29.6350,-93.6417,2.0,90.0,9.98,-99999.0,'11133222,11111222,99999999' 
TABS,ioos:station:wmo:42051:1,2000-12-02T18:00:00Z,29.6350,-93.6417,2.0,82.67901456,10.51572632,-99999.0,'11111222,11111222,99999999' 
TABS,ioos:station:wmo:42051:1,2000-12-02T18:30:00Z,29.6350,-93.6417,2.0,79.07322813,17.30371347,-99999.0,'11111222,11111222,99999999' 
TABS,ioos:station:wmo:42051:1,2000-12-02T19:00:00Z,29.6350,-93.6417,2.0,87.57195717,14.16271514,-99999.0,'11111222,11111222,99999999' 
TABS,ioos:station:wmo:42051:1,2000-12-02T19:30:00Z,29.6350,-93.6417,2.0,96.52689713,9.14930052,-99999.0,'11133222,11111222,99999999' 
TABS,ioos:station:wmo:42051:1,2000-12-02T20:00:00Z,29.6350,-93.6417,2.0,99.2809136,8.308766455,-99999.0,'11133222,11111222,99999999' 
TABS,ioos:station:wmo:42051:1,2000-12-02T20:30:00Z,29.6350,-93.6417,2.0,106.1590477,5.892809177,-99999.0,'11133222,11111222,99999999' 
TABS,ioos:station:wmo:42051:1,2000-12-02T21:00:00Z,29.6350,-93.6417,2.0,104.0550641,7.370658044,-99999.0,'11133222,11111222,99999999' 
TABS,ioos:station:wmo:42051:1,2000-12-02T21:30:00Z,29.6350,-93.6417,2.0,98.25721121,8.285897658,-99999.0,'11133222,11111222,99999999' 
TABS,ioos:station:wmo:42051:1,2000-12-02T22:00:00Z,29.6350,-93.6417,2.0,103.3105706,8.426363391,-99999.0,'11133222,11111222,99999999' 
TABS,ioos:station:wmo:42051:1,2000-12-02T22:30:00Z,29.6350,-93.6417,2.0,117.8608474,5.734744981,-99999.0,'11133222,11111222,99999999' 
TABS,ioos:station:wmo:42051:1,2000-12-02T23:00:00Z,29.6350,-93.6417,2.0,83.36750089,3.896074948,-99999.0,'11133222,11111222,99999999' 
TABS,ioos:station:wmo:42051:1,2000-12-02T23:30:00Z,29.6350,-93.6417,2.0,60.23547872,7.211379896,-99999.0,'11133222,11111222,99999999' 
TABS,ioos:station:wmo:42051:1,2000-12-03T00:00:00Z,29.6350,-93.6417,2.0,99.69397639,5.285470651,-99999.0,'11133222,11111222,99999999' 
TABS,ioos:station:wmo:42051:1,2000-12-03T00:30:00Z,29.6350,-93.6417,2.0,94.66895554,5.528345141,-99999.0,'11133222,11111222,99999999' 
TABS,ioos:station:wmo:42051:1,2000-12-03T01:00:00Z,29.6350,-93.6417,2.0,101.5361314,7.45051005,-99999.0,'11133222,11111222,99999999' 
TABS,ioos:station:wmo:42051:1,2000-12-03T01:30:00Z,29.6350,-93.6417,2.0,72.69951326,7.027958452,-99999.0,'11133222,11111222,99999999' 
TABS,ioos:station:wmo:42051:1,2000-12-03T02:00:00Z,29.6350,-93.6417,2.0,61.29411458,5.267380753,-99999.0,'11133222,11111222,99999999' 
TABS,ioos:station:wmo:42051:1,2000-12-03T02:30:00Z,29.6350,-93.6417,2.0,80.96502613,2.865554048,-99999.0,'11133222,11111222,99999999' 
TABS,ioos:station:wmo:42051:1,2000-12-03T03:00:00Z,29.6350,-93.6417,2.0,63.37582125,4.329029914,-99999.0,'11133222,11111222,99999999' 
TABS,ioos:station:wmo:42051:1,2000-12-03T03:30:00Z,29.6350,-93.6417,2.0,49.56674016,6.66087832,-99999.0,'11133222,11111222,99999999' 
TABS,ioos:station:wmo:42051:1,2000-12-03T04:00:00Z,29.6350,-93.6417,2.0,78.48967277,8.970406903,-99999.0,'11133222,11111222,99999999' 
TABS,ioos:station:wmo:42051:1,2000-12-03T04:30:00Z,29.6350,-93.6417,2.0,69.48615524,6.363528895,-99999.0,'11133222,11111222,99999999' 
TABS,ioos:station:wmo:42051:1,2000-12-03T05:00:00Z,29.6350,-93.6417,2.0,59.00804965,3.476276744,-99999.0,'11133222,11111222,99999999' 
TABS,ioos:station:wmo:42051:1,2000-12-03T05:30:00Z,29.6350,-93.6417,2.0,24.6440533,2.134408583,-99999.0,'11133222,11111222,99999999' 
TABS,ioos:station:wmo:42051:1,2000-12-03T06:00:00Z,29.6350,-93.6417,2.0,40.57124662,4.120594617,-99999.0,'11133222,11111222,99999999' 
TABS,ioos:station:wmo:42051:1,2000-12-03T06:30:00Z,29.6350,-93.6417,2.0,58.99854683,2.601634102,-99999.0,'11133222,11111222,99999999' 
TABS,ioos:station:wmo:42051:1,2000-12-03T07:00:00Z,29.6350,-93.6417,2.0,74.56417421,2.780287755,-99999.0,'11133222,11111222,99999999' 
TABS,ioos:station:wmo:42051:1,2000-12-03T07:30:00Z,29.6350,-93.6417,2.0,73.42489382,5.748886849,-99999.0,'11133222,11111222,99999999' 
TABS,ioos:station:wmo:42051:1,2000-12-03T08:00:00Z,29.6350,-93.6417,2.0,91.55938742,5.512041364,-99999.0,'11133222,11111222,99999999' 
TABS,ioos:station:wmo:42051:1,2000-12-03T08:30:00Z,29.6350,-93.6417,2.0,90.0,5.81,-99999.0,'11133222,11111222,99999999' 
TABS,ioos:station:wmo:42051:1,2000-12-03T09:00:00Z,29.6350,-93.6417,2.0,71.22514237,6.928672311,-99999.0,'11133222,11111222,99999999' 
TABS,ioos:station:wmo:42051:1,2000-12-03T09:30:00Z,29.6350,-93.6417,2.0,77.40437265,10.22610874,-99999.0,'11111222,11111222,99999999' 
TABS,ioos:station:wmo:42051:1,2000-12-03T10:00:00Z,29.6350,-93.6417,2.0,79.52338491,9.844109914,-99999.0,'11133222,11111222,99999999' 
TABS,ioos:station:wmo:42051:1,2000-12-03T10:30:00Z,29.6350,-93.6417,2.0,92.17473903,7.90569415,-99999.0,'11133222,11111222,99999999' 
TABS,ioos:station:wmo:42051:1,2000-12-03T11:00:00Z,29.6350,-93.6417,2.0,83.09439006,6.15464865,-99999.0,'11133222,11111222,99999999' 
TABS,ioos:station:wmo:42051:1,2000-12-03T11:30:00Z,29.6350,-93.6417,2.0,92.24671527,11.47882398,-99999.0,'11111222,11111222,99999999' 
TABS,ioos:station:wmo:42051:1,2000-12-03T12:00:00Z,29.6350,-93.6417,2.0,109.8935074,10.93237394,-99999.0,'11111222,11111222,99999999' 
TABS,ioos:station:wmo:42051:1,2000-12-03T12:30:00Z,29.6350,-93.6417,2.0,113.6419325,7.805088084,-99999.0,'11133222,11111222,99999999' 
TABS,ioos:station:wmo:42051:1,2000-12-03T13:00:00Z,29.6350,-93.6417,2.0,105.4836869,8.353167064,-99999.0,'11133222,11111222,99999999' 
TABS,ioos:station:wmo:42051:1,2000-12-03T13:30:00Z,29.6350,-93.6417,2.0,94.11489948,8.361554879,-99999.0,'11133222,11111222,99999999' 
TABS,ioos:station:wmo:42051:1,2000-12-03T14:00:00Z,29.6350,-93.6417,2.0,93.38854907,7.613310712,-99999.0,'11133222,11111222,99999999' 
TABS,ioos:station:wmo:42051:1,2000-12-03T14:30:00Z,29.6350,-93.6417,2.0,93.5987597,9.558849303,-99999.0,'11133222,11111222,99999999' 
TABS,ioos:station:wmo:42051:1,2000-12-03T15:00:00Z,29.6350,-93.6417,2.0,84.53652236,14.0739369,-99999.0,'11111222,11111222,99999999' 
TABS,ioos:station:wmo:42051:1,2000-12-03T15:30:00Z,29.6350,-93.6417,2.0,82.03203002,13.99511343,-99999.0,'11111222,11111222,99999999' 
TABS,ioos:station:wmo:42051:1,2000-12-03T16:00:00Z,29.6350,-93.6417,2.0,78.02389556,50.26404082,-99999.0,'11111222,11111222,99999999' 
TABS,ioos:station:wmo:42051:1,2000-12-03T16:30:00Z,29.6350,-93.6417,2.0,75.38363275,43.11534298,-99999.0,'11111222,11111222,99999999' 
TABS,ioos:station:wmo:42051:1,2000-12-03T17:00:00Z,29.6350,-93.6417,2.0,78.33415849,41.98731356,-99999.0,'11111222,11111222,99999999' 
TABS,ioos:station:wmo:42051:1,2000-12-03T17:30:00Z,29.6350,-93.6417,2.0,82.02089298,32.20175461,-99999.0,'11111222,11111222,99999999' 
TABS,ioos:station:wmo:42051:1,2000-12-03T18:00:00Z,29.6350,-93.6417,2.0,80.3214218,25.69574478,-99999.0,'11111222,11111222,99999999' 
TABS,ioos:station:wmo:42051:1,2000-12-03T18:30:00Z,29.6350,-93.6417,2.0,68.1226094,19.59087543,-99999.0,'11111222,11111222,99999999' 
TABS,ioos:station:wmo:42051:1,2000-12-03T19:00:00Z,29.6350,-93.6417,2.0,80.85977066,14.03825132,-99999.0,'11111222,11111222,99999999' 
TABS,ioos:station:wmo:42051:1,2000-12-03T19:30:00Z,29.6350,-93.6417,2.0,85.32606562,16.44468607,-99999.0,'11111222,11111222,99999999' 
TABS,ioos:station:wmo:42051:1,2000-12-03T20:00:00Z,29.6350,-93.6417,2.0,70.71244585,22.10044343,-99999.0,'11111222,11111222,99999999' 
TABS,ioos:station:wmo:42051:1,2000-12-03T20:30:00Z,29.6350,-93.6417,2.0,73.19602233,32.99908635,-99999.0,'11111222,11111222,99999999' 
TABS,ioos:station:wmo:42051:1,2000-12-03T21:00:00Z,29.6350,-93.6417,2.0,81.4533661,32.09642503,-99999.0,'11111222,11111222,99999999' 
TABS,ioos:station:wmo:42051:1,2000-12-03T21:30:00Z,29.6350,-93.6417,2.0,74.37373708,24.9107246,-99999.0,'11111222,11111222,99999999' 
TABS,ioos:station:wmo:42051:1,2000-12-03T22:00:00Z,29.6350,-93.6417,2.0,80.48542629,25.2270351,-99999.0,'11111222,11111222,99999999' 
TABS,ioos:station:wmo:42051:1,2000-12-03T22:30:00Z,29.6350,-93.6417,2.0,69.05242864,27.91496552,-99999.0,'11111222,11111222,99999999' 
TABS,ioos:station:wmo:42051:1,2000-12-03T23:00:00Z,29.6350,-93.6417,2.0,79.23003695,37.45984517,-99999.0,'11111222,11111222,99999999' 
TABS,ioos:station:wmo:42051:1,2000-12-03T23:30:00Z,29.6350,-93.6417,2.0,75.63837106,32.45421544,-99999.0,'11111222,11111222,99999999' 
TABS,ioos:station:wmo:42051:1,2000-12-04T00:00:00Z,29.6350,-93.6417,2.0,76.08880411,32.23548666,-99999.0,'11111222,11111222,99999999' 
TABS,ioos:station:wmo:42051:1,2000-12-04T00:30:00Z,29.6350,-93.6417,2.0,80.76120376,32.45096301,-99999.0,'11111222,11111222,99999999' 
TABS,ioos:station:wmo:42051:1,2000-12-04T01:00:00Z,29.6350,-93.6417,2.0,78.75205193,29.01736032,-99999.0,'11111222,11111222,99999999' 
TABS,ioos:station:wmo:42051:1,2000-12-04T01:30:00Z,29.6350,-93.6417,2.0,74.0465799,29.28801974,-99999.0,'11111222,11111222,99999999' 
TABS,ioos:station:wmo:42051:1,2000-12-04T02:00:00Z,29.6350,-93.6417,2.0,62.90318004,35.65340376,-99999.0,'11111222,11111222,99999999' 
TABS,ioos:station:wmo:42051:1,2000-12-04T02:30:00Z,29.6350,-93.6417,2.0,71.22970897,32.41390134,-99999.0,'11111222,11111222,99999999' 
TABS,ioos:station:wmo:42051:1,2000-12-04T03:00:00Z,29.6350,-93.6417,2.0,77.30170834,31.16219665,-99999.0,'11111222,11111222,99999999' 
TABS,ioos:station:wmo:42051:1,2000-12-04T03:30:00Z,29.6350,-93.6417,2.0,82.68402277,32.74659219,-99999.0,'11111222,11111222,99999999' 
TABS,ioos:station:wmo:42051:1,2000-12-04T04:00:00Z,29.6350,-93.6417,2.0,80.53769992,27.18994851,-99999.0,'11111222,11111222,99999999' 
TABS,ioos:station:wmo:42051:1,2000-12-04T04:30:00Z,29.6350,-93.6417,2.0,82.26879046,26.61190147,-99999.0,'11111222,11111222,99999999' 
TABS,ioos:station:wmo:42051:1,2000-12-04T05:00:00Z,29.6350,-93.6417,2.0,74.0465799,29.28801974,-99999.0,'11111222,11111222,99999999' 
TABS,ioos:station:wmo:42051:1,2000-12-04T05:30:00Z,29.6350,-93.6417,2.0,74.77384321,27.79572629,-99999.0,'11111222,11111222,99999999' 
TABS,ioos:station:wmo:42051:1,2000-12-04T06:00:00Z,29.6350,-93.6417,2.0,76.90676155,28.29561273,-99999.0,'11111222,11111222,99999999' 
TABS,ioos:station:wmo:42051:1,2000-12-04T06:30:00Z,29.6350,-93.6417,2.0,79.01769925,25.03855627,-99999.0,'11111222,11111222,99999999' 
TABS,ioos:station:wmo:42051:1,2000-12-04T07:00:00Z,29.6350,-93.6417,2.0,83.54570434,23.84110945,-99999.0,'11111222,11111222,99999999' 
TABS,ioos:station:wmo:42051:1,2000-12-04T07:30:00Z,29.6350,-93.6417,2.0,70.60392944,22.43319193,-99999.0,'11111222,11111222,99999999' 
TABS,ioos:station:wmo:42051:1,2000-12-04T08:00:00Z,29.6350,-93.6417,2.0,65.57028397,23.40552285,-99999.0,'11111222,11111222,99999999' 
TABS,ioos:station:wmo:42051:1,2000-12-04T08:30:00Z,29.6350,-93.6417,2.0,71.11220306,24.40405909,-99999.0,'11111222,11111222,99999999' 
TABS,ioos:station:wmo:42051:1,2000-12-04T09:00:00Z,29.6350,-93.6417,2.0,75.9699035,22.72801355,-99999.0,'11111222,11111222,99999999' 
TABS,ioos:station:wmo:42051:1,2000-12-04T09:30:00Z,29.6350,-93.6417,2.0,72.10276628,19.88211508,-99999.0,'11111222,11111222,99999999' 
TABS,ioos:station:wmo:42051:1,2000-12-04T10:00:00Z,29.6350,-93.6417,2.0,66.8570289,18.95540556,-99999.0,'11111222,11111222,99999999' 
TABS,ioos:station:wmo:42051:1,2000-12-04T10:30:00Z,29.6350,-93.6417,2.0,62.13182767,23.59662052,-99999.0,'11111222,11111222,99999999' 
TABS,ioos:station:wmo:42051:1,2000-12-04T11:00:00Z,29.6350,-93.6417,2.0,66.54597025,22.08464851,-99999.0,'11111222,11111222,99999999' 
TABS,ioos:station:wmo:42051:1,2000-12-04T11:30:00Z,29.6350,-93.6417,2.0,70.47589287,22.29176081,-99999.0,'11111222,11111222,99999999' 
TABS,ioos:station:wmo:42051:1,2000-12-04T12:00:00Z,29.6350,-93.6417,2.0,79.67047591,20.74624062,-99999.0,'11111222,11111222,99999999' 
TABS,ioos:station:wmo:42051:1,2000-12-04T12:30:00Z,29.6350,-93.6417,2.0,81.63250512,20.47798818,-99999.0,'11111222,11111222,99999999' 
TABS,ioos:station:wmo:42051:1,2000-12-04T13:00:00Z,29.6350,-93.6417,2.0,74.95151635,22.37740378,-99999.0,'11111222,11111222,99999999' 
TABS,ioos:station:wmo:42051:1,2000-12-04T13:30:00Z,29.6350,-93.6417,2.0,76.38163647,19.62165385,-99999.0,'11111222,11111222,99999999' 
TABS,ioos:station:wmo:42051:1,2000-12-04T14:00:00Z,29.6350,-93.6417,2.0,78.48967277,17.94081381,-99999.0,'11111222,11111222,99999999' 
TABS,ioos:station:wmo:42051:1,2000-12-04T14:30:00Z,29.6350,-93.6417,2.0,71.5760852,16.48495375,-99999.0,'11111222,11111222,99999999' 
TABS,ioos:station:wmo:42051:1,2000-12-04T15:00:00Z,29.6350,-93.6417,2.0,72.19877315,16.58399831,-99999.0,'11111222,11111222,99999999' 
TABS,ioos:station:wmo:42051:1,2000-12-04T15:30:00Z,29.6350,-93.6417,2.0,74.85685551,14.81441528,-99999.0,'11111222,11111222,99999999' 
TABS,ioos:station:wmo:42051:1,2000-12-04T16:00:00Z,29.6350,-93.6417,2.0,79.37829686,16.98095993,-99999.0,'11111222,11111222,99999999' 